sat.trackr.live / text

‹ back to catalog

STARLINK-4609

NORAD 53619 · 2022-104AH

PAYLOAD ACTIVE UNKNOWN

§ Identity

Operator
Country
US
Launch date
2022-08-28
Launch site
AFETR
Launch vehicle
Mass (kg)
RCS (m²)

Purposes: comms

External: N2YO · Heavens-Above · Gunter

§ Orbital elements

Epoch: 2026-05-24T23:43:47.468640Z

Period
95.44 min
Inclination
53.2165°
Eccentricity
0.0001295
Mean motion
15.08839544 rev/d
Perigee alt
538.8 km
Apogee alt
540.6 km
Semi-major
6,917.9 km
B*
4.6196e-5
RAAN
251.5912°
Arg perigee
85.0081°
Mean anomaly
275.1059°
Rev number
20,715

§ Raw data

STARLINK-46091 53619U 22104AH  26144.98874385  .00000447  00000+0  46196-4 0  99962 53619  53.2165 251.5912 0001295  85.0081 275.1059 15.08839544207153

JSON: /api/v1/satellites/53619 · /tle

For live sub-satellite position, see the globe view (requires WebGL).

§ Visibility from observer

Set your observer location to see the next 7 days of passes ≥ 10°. The values pass through the URL so the page stays shareable.

No JS? Fill the form by hand. The geolocation button needs JavaScript.